Weather History for Mineral Wells, TX

Change the Weather History Date:

Saturday, August 24, 2013

  Actual Average Record
Temperature  
Mean Temperature 85 °F -  
Max Temperature 96 °F 92 °F 106 °F (2006)
Min Temperature 75 °F 70 °F 68 °F (1997)
Cooling Degree Days 20    
Growing Degree Days 35 (Base 50)    
Moisture  
Dew Point 67 °F    
Average Humidity 59    
Maximum Humidity 81    
Minimum Humidity 38    
Precipitation  
Precipitation 0.00 in - - ()
Sea Level Pressure  
Sea Level Pressure 29.98 in    
Wind  
Wind Speed 6 mph (ENE)    
Max Wind Speed 21 mph    
Max Gust Speed 30 mph    
Visibility 10 miles    
Events Rain , Thunderstorm    
Averages and records for this station are not official NWS values.
T = Trace of Precipitation, MM = Missing Value Source: NWS Daily Summary

Daily Weather History Graph

Daily Weather History Graph

Search for Another Location

Airport:

Trip Planner

Search our weather history database for the weather conditions in past years. The results will help you decide how hot, cold, wet, or windy it might be!

Date:

Astronomy

Aug. 24, 2013 Rise Set
Actual Time 7:01 AM CDT 8:06 PM CDT
Civil Twilight 6:36 AM CDT 8:32 PM CDT
Nautical Twilight 6:06 AM CDT 9:02 PM CDT
Astronomical Twilight 5:34 AM CDT 9:33 PM CDT
Moon 10:19 PM CDT (8/24) 10:46 AM CDT (8/24)
Length of Visible Light 13h 55m
Length of Day
13h 04m
Waning Gibbous, 84% of the Moon is Illuminated
Aug 24
Waning Gibbous
Aug 28
Last Quarter
Sep 5
New
Sep 12
First Quarter
Sep 19
Full

Hourly Weather History & Observations

Time (CDT) Temp. Heat Index Dew Point Humidity Pressure Visibility Wind Dir Wind Speed Gust Speed Precip Events Conditions
12:53 AM 82.0 °F 84.5 °F 66.9 °F 60% 29.94 in 10.0 mi ENE 9.2 mph - N/A   Clear
1:53 AM 75.9 °F - 68.0 °F 76% 29.94 in 10.0 mi SW 6.9 mph - N/A   Clear
2:53 AM 79.0 °F - 66.0 °F 64% 29.94 in 10.0 mi East 4.6 mph - N/A   Clear
3:53 AM 78.1 °F - 66.9 °F 68% 29.94 in 10.0 mi ENE 4.6 mph - N/A   Clear
4:53 AM 77.0 °F - 66.9 °F 71% 29.96 in 10.0 mi ENE 4.6 mph - N/A   Clear
5:53 AM 75.0 °F - 68.0 °F 79% 29.96 in 10.0 mi Calm Calm - N/A   Clear
6:53 AM 75.0 °F - 66.9 °F 76% 29.98 in 10.0 mi Calm Calm - N/A   Clear
7:53 AM 77.0 °F - 68.0 °F 74% 29.99 in 10.0 mi SSE 4.6 mph - N/A   Clear
8:53 AM 80.1 °F 82.1 °F 66.0 °F 62% 30.01 in 10.0 mi ESE 3.5 mph - N/A   Clear
9:53 AM 84.0 °F 87.0 °F 68.0 °F 58% 30.02 in 10.0 mi SSE 3.5 mph - N/A   Clear
10:53 AM 89.1 °F 92.9 °F 68.0 °F 50% 30.03 in 10.0 mi ESE 4.6 mph - N/A   Clear
11:53 AM 91.9 °F 95.4 °F 66.9 °F 44% 30.02 in 10.0 mi Calm Calm - N/A   Clear
12:53 PM 93.9 °F 96.1 °F 64.9 °F 38% 30.00 in 10.0 mi SSE 4.6 mph - N/A   Partly Cloudy
1:21 PM 93.2 °F 94.9 °F 64.4 °F 38% 30.03 in 10.0 mi SSE 4.6 mph - N/A Thunderstorm Clear
1:53 PM 87.1 °F 89.9 °F 66.9 °F 51% 30.00 in 10.0 mi North 11.5 mph - N/A Thunderstorm Scattered Clouds
2:53 PM 91.0 °F 95.2 °F 68.0 °F 47% 29.99 in 10.0 mi West 11.5 mph - N/A Thunderstorm Clear
3:09 PM 91.4 °F 94.0 °F 66.2 °F 43% 30.01 in 10.0 mi West 6.9 mph - N/A   Clear
3:53 PM 93.9 °F 97.0 °F 66.0 °F 40% 29.95 in 10.0 mi NW 4.6 mph - N/A   Clear
4:05 PM 95.0 °F 98.5 °F 66.2 °F 39% 30.00 in 10.0 mi NW 6.9 mph - N/A Thunderstorm Clear
4:32 PM 89.6 °F 93.4 °F 68.0 °F 49% 30.00 in 10.0 mi NNE 20.7 mph 28.8 mph N/A Thunderstorm Thunderstorm
4:53 PM 82.0 °F 84.9 °F 68.0 °F 62% 29.98 in 10.0 mi South 20.7 mph 29.9 mph 0.00 in Rain , Thunderstorm Light Thunderstorms and Rain
5:04 PM 86.0 °F 88.2 °F 66.2 °F 51% 30.01 in 10.0 mi Variable 5.8 mph 20.7 mph 0.00 in Thunderstorm Thunderstorm
5:21 PM 84.2 °F 86.6 °F 66.2 °F 55% 30.00 in 10.0 mi NNW 4.6 mph - 0.00 in   Scattered Clouds
5:53 PM 86.0 °F 89.4 °F 68.0 °F 55% 29.94 in 10.0 mi NNW 5.8 mph - 0.00 in   Clear
6:53 PM 84.9 °F 88.8 °F 69.1 °F 59% 29.94 in 10.0 mi West 5.8 mph - N/A   Clear
7:53 PM 79.0 °F - 70.0 °F 74% 29.94 in 10.0 mi Calm Calm - N/A   Clear
8:53 PM 82.0 °F 84.9 °F 68.0 °F 62% 29.96 in 10.0 mi Calm Calm - N/A   Clear
9:53 PM 79.0 °F - 71.1 °F 77% 29.98 in 10.0 mi NNE 3.5 mph - N/A   Clear
10:53 PM 78.1 °F - 72.0 °F 81% 30.00 in 10.0 mi Calm Calm - N/A   Clear
11:53 PM 80.1 °F 82.7 °F 68.0 °F 67% 30.01 in 10.0 mi Calm Calm - N/A   Partly Cloudy